This is the latest recevied weather packets stored in our database for station/object DG7YEO-13. If no packets are shown the sender has not sent any weather packets the latest 10 day(s).
| Time | Temp. | Humidity | Pressure | Rain* | Wind** | Luminosity | Snow |
|---|---|---|---|---|---|---|---|
| 1787952726 | 16.11° C | 92% | 1009.8 hPa | 0 mm | - | - | - |
| 1787951824 | 16.11° C | 93% | 1009.8 hPa | 0 mm | - | - | - |
| 1787950925 | 16.11° C | 93% | 1009.8 hPa | 0 mm | - | - | - |
| 1787950025 | 16.11° C | 93% | 1009.8 hPa | 0 mm | - | - | - |
| 1787949125 | 16.11° C | 93% | 1009.8 hPa | 0 mm | - | - | - |
| 1787948225 | 16.11° C | 93% | 1009.6 hPa | 0 mm | - | - | - |
| 1787947325 | 16.11° C | 93% | 1009.5 hPa | 0 mm | - | - | - |
| 1787946425 | 16.11° C | 93% | 1009.3 hPa | 0 mm | - | - | - |
| 1787945525 | 16.11° C | 92% | 1009.1 hPa | 0 mm | - | - | - |
| 1787944625 | 16.11° C | 92% | 1009 hPa | 0 mm | - | - | - |
| 1787943725 | 16.11° C | 91% | 1008.9 hPa | 0 mm | - | - | - |
| 1787942825 | 16.67° C | 91% | 1008.7 hPa | 0 mm | - | - | - |
| 1787941925 | 16.67° C | 90% | 1008.4 hPa | 0 mm | - | - | - |
| 1787941024 | 16.67° C | 91% | 1008.3 hPa | 0 mm | - | - | - |
| 1787940125 | 17.22° C | 90% | 1008.3 hPa | 2.54 mm | - | - | - |
| 1787939225 | 17.22° C | 89% | 1008.1 hPa | 2.54 mm | - | - | - |
| 1787938325 | 17.78° C | 87% | 1008 hPa | 2.54 mm | - | - | - |
| 1787937425 | 18.33° C | 83% | 1008 hPa | 2.29 mm | - | - | - |
| 1787936525 | 20° C | 83% | 1007 hPa | 0 mm | - | - | - |
| 1787935625 | 20° C | 83% | 1006.9 hPa | 3.56 mm | - | - | - |
| 1787934725 | 20.56° C | 85% | 1007 hPa | 3.56 mm | - | - | - |
| 1787933825 | 21.11° C | 85% | 1007.3 hPa | 3.56 mm | - | - | - |
| 1787932925 | 21.67° C | 81% | 1007.4 hPa | 3.56 mm | - | - | - |
| 1787932025 | 22.22° C | 72% | 1007.4 hPa | 0 mm | - | - | - |
| 1787931124 | 23.33° C | 67% | 1007.3 hPa | 0 mm | - | - | - |
* Rain latest hour (hover to see other rain measurements)
** Current wind speed in m/s (hover to see current wind gust speed)